Regional Weather Roundup
Issued by NWS

Home | Current Version | Previous Version | Text Only | Print | Product List | Glossary On
Versions: 1 2 3 4 5 6 7 8 9 10 11 12 13 14 15 16 17 18 19 20 21 22 23 24 25 26 27 28 29 30 31 32 33 34 35 36 37 38 39 40 41 42 43 44 45 46 47 48 49 50
742
ASUS42 KFFC 180110
RWRGA
WEATHER ROUNDUP FOR GEORGIA
NATIONAL WEATHER SERVICE PEACHTREE CITY GA
800 PM EST FRI NOV 17 2017

NOTE: "FAIR" INDICATES FEW OR NO CLOUDS BELOW 12,000 FEET WITH NO
SIGNIFICANT WEATHER AND/OR OBSTRUCTIONS TO VISIBILITY.

* = USE WITH CAUTION. THE STATIONS MARKED WITH AN ASTERISK MAY NOT
REPORT WEATHER SUCH AS PRECIPITATION, FOG, OR THUNDER AND ARE NOT
QUALITY CONTROLLED BY NWS.

THE REMARK "TC" DENOTES TEMPERATURE READING IN DEGREES CELSIUS.

GAZ001>058-180200-
NORTH GEORGIA

CITY           SKY/WX    TMP DP  RH WIND       PRES   REMARKS
ATLANTA        PTCLDY    56  44  64 SE6       30.09S
ATHENS         CLEAR     46  42  86 SE3       30.11S
CHAMBLEE       CLEAR     48  42  80 SE3       30.10R
PEACHTREE CITY CLEAR     47  44  90 CALM      30.10S
ROME           CLEAR     49  43  80 CALM      30.07R
WEST ATLANTA   CLEAR     50  45  83 CALM      30.09S
GAINESVILLE    CLEAR     53  38  56 SE3       30.13R
CARTERSVILLE   CLEAR     50  43  77 SE3       30.09R


CITY           SKY/WX    TMP DP  RH WIND       PRES   REMARKS
DALTON*        CLEAR     55  41  58 SE6       30.08S
LAWRENCEVILLE* PTCLDY    47  42  83 CALM      30.12R
MARIETTA       PTCLDY    52  42  69 CALM      30.08S
KENNESAW*      CLEAR     54  41  61 SE5       30.10R
CANTON*        CLEAR     55  41  58 E3        30.10F
$$

GAZ059>098-102>109-180200-
CENTRAL GEORGIA

CITY           SKY/WX    TMP DP  RH WIND       PRES   REMARKS
AUGUSTA-BUSH   CLEAR     44  40  85 CALM      30.13S
AUGUSTA-DANIEL CLEAR     57  37  47 E3        30.13S
COLUMBUS       CLEAR     54  43  66 CALM      30.09R
MACON          CLEAR     50  45  83 CALM      30.10F
ROBINS AFB     CLEAR     50  46  88 CALM      30.10S


CITY           SKY/WX    TMP DP  RH WIND       PRES   REMARKS
LAGRANGE*      CLEAR     47  47  98 CALM      30.10R
SYLVANIA*      CLEAR     50  45  83 CALM      30.14S
MILLEDGEVILLE* CLEAR     48  45  87 CALM      30.12R
$$

GAZ099>101-110>166-180200-
SOUTH GEORGIA

CITY           SKY/WX    TMP DP  RH WIND       PRES   REMARKS
SAVANNAH       PTCLDY    54  50  86 E7        30.14S
VALDOSTA       CLEAR     50  46  86 CALM      30.08F
ALMA           CLEAR     59  52  77 E5        30.10F
ST SIMONS      PTCLDY    60  57  89 N7        30.12R
FT STEWART     CLEAR     53  48  83 CALM      30.11S
ALBANY         CLEAR     55  46  71 CALM      30.12R
HUNTER AFB     CLEAR     55  50  84 CALM      30.11S
MOODY AFB      CLEAR     54  48  81 CALM      30.08F
BRUNSWICK      PTCLDY    57  54  88 N5        30.13R


CITY           SKY/WX    TMP DP  RH WIND       PRES   REMARKS
BAINBRIDGE*    CLEAR     55  50  82 CALM      30.10R
MOULTRIE*      CLEAR     55  48  76 CALM      30.10R
VIDALIA*       CLEAR     55  46  71 CALM      30.12S
WAYCROSS*      CLEAR     59  53  79 SE7       30.10F
DOUGLAS*       CLEAR     59  50  72 E5        30.12R
$$




USA.gov is the U.S. government's official web portal to all federal, state and local government web resources and services.